FW3096 Weather Reports


Display with metric or nautical units.
time (UTC)temp
F
wind
direction
speed
MPH
gust
MPH
rain 1hr
in
rain 24hr
in
rain mn
in
humidity
%
barometer
mb
20260508151510 62 25 1.0 10.0 0.00 0.00 0.00 52 1014.9
20260508151009 62 254 3.0 8.0 0.00 0.00 0.00 50 1014.9
20260508145011 59 333 4.0 9.0 0.00 0.00 0.00 50 1015.2
20260508144508 59 360 2.0 9.0 0.00 0.00 0.00 48 1015.1
20260508143510 58 183 1.0 8.0 0.00 0.00 0.00 49 1015.1
20260508143009 58 284 2.0 6.0 0.00 0.00 0.00 54 1015.2
20260508142508 58 273 1.0 4.0 0.00 0.00 0.00 52 1015.1
20260508142011 59 209 3.0 4.0 0.00 0.00 0.00 49 1015.2
20260508141009 57 257 2.0 8.0 0.00 0.00 0.00 51 1015.3
20260508140509 57 288 3.0 8.0 0.00 0.00 0.00 49 1015.3
20260508140010 57 273 3.0 8.0 0.00 0.00 0.00 50 1015.3
20260508135508 57 311 4.0 8.0 0.00 0.00 0.00 50 1015.3
20260508135011 58 188 2.0 6.0 0.00 0.00 0.00 54 1015.5
20260508134508 58 211 2.0 6.0 0.00 0.00 0.00 50 1015.4
20260508133508 57 332 2.0 5.0 0.00 0.00 0.00 52 1015.4
20260508133011 57 294 1.0 5.0 0.00 0.00 0.00 54 1015.4
20260508132509 56 336 2.0 5.0 0.00 0.00 0.00 53 1015.5
20260508132009 55 302 1.0 5.0 0.00 0.00 0.00 52 1015.5
20260508131010 55 167 0.0 6.0 0.00 0.00 0.00 56 1015.3
20260508130508 55 281 1.0 5.0 0.00 0.00 0.00 59 1015.6
20260508130011 55 299 3.0 7.0 0.00 0.00 0.00 60 1015.7
20260508125508 54 308 2.0 7.0 0.00 0.00 0.00 62 1015.7
20260508125010 54 203 2.0 5.0 0.00 0.00 0.00 66 1015.5
20260508124509 53 317 3.0 4.0 0.00 0.00 0.00 66 1015.5
20260508124008 52 167 1.0 5.0 0.00 0.00 0.00 71 1015.5
20260508123507 51 343 0.0 5.0 0.00 0.00 0.00 73 1015.5
20260508123009 51 333 2.0 5.0 0.00 0.00 0.00 74 1015.5
20260508122507 50 293 2.0 5.0 0.00 0.00 0.00 75 1015.4
20260508121509 49 326 2.0 8.0 0.00 0.00 0.00 79 1015.5
20260508121008 49 292 3.0 8.0 0.00 0.00 0.00 80 1015.6
20260508120507 48 320 2.0 6.0 0.00 0.00 0.00 81 1015.6
20260508120012 48 290 3.0 5.0 0.00 0.00 0.00 83 1015.5
20260508115507 47 306 3.0 5.0 0.00 0.00 0.00 85 1015.4
20260508115008 46 292 2.0 4.0 0.00 0.00 0.00 86 1015.3
20260508114509 46 284 0.0 4.0 0.00 0.00 0.00 87 1015.3
20260508113509 45 266 0.0 0.0 0.00 0.00 0.00 89 1015.2
20260508113008 44 266 0.0 0.0 0.00 0.00 0.00 89 1015.1
20260508112010 44 266 0.0 0.0 0.00 0.00 0.00 89 1015.3
20260508111508 44 266 0.0 0.0 0.00 0.00 0.00 89 1015.3
20260508111008 43 266 0.0 0.0 0.00 0.00 0.00 89 1015.3
20260508110508 43 266 0.0 0.0 0.00 0.00 0.00 88 1015.2
20260508110009 43 266 0.0 0.0 0.00 0.00 0.00 88 1015.2
20260508105507 43 266 0.0 0.0 0.00 0.00 0.00 88 1015.1
20260508105010 43 266 0.0 0.0 0.00 0.00 0.00 88 1015.0
20260508104508 43 266 0.0 0.0 0.00 0.00 0.00 88 1014.9
20260508104008 43 266 0.0 0.0 0.00 0.00 0.00 87 1014.7
20260508103509 43 266 0.0 0.0 0.00 0.00 0.00 87 1014.8
20260508103008 43 266 0.0 0.0 0.00 0.00 0.00 86 1014.7
20260508102507 43 266 0.0 0.0 0.00 0.00 0.00 86 1014.7
20260508102009 43 266 0.0 0.0 0.00 0.00 0.00 86 1014.7
20260508101507 43 266 0.0 0.0 0.00 0.00 0.00 85 1014.6
20260508100507 43 266 0.0 0.0 0.00 0.00 0.00 85 1014.5
20260508095507 44 266 0.0 0.0 0.00 0.00 0.00 84 1014.4
20260508095008 44 266 0.0 0.0 0.00 0.00 0.00 83 1014.4
20260508094008 44 266 0.0 0.0 0.00 0.00 0.00 82 1014.4
20260508093507 45 266 0.0 0.0 0.00 0.00 0.00 81 1014.3
20260508092008 46 266 0.0 0.0 0.00 0.00 0.00 79 1014.3
20260508091509 46 266 0.0 0.0 0.00 0.00 0.00 78 1014.2
20260508091008 47 266 0.0 0.0 0.00 0.00 0.00 78 1014.2
20260508090012 47 266 0.0 0.0 0.00 0.00 0.00 77 1014.2
20260508085507 47 266 0.0 0.0 0.00 0.01 0.00 76 1014.2
20260508085009 48 266 0.0 0.0 0.00 0.01 0.00 76 1014.1
20260508084509 48 266 0.0 0.0 0.00 0.01 0.00 75 1014.0
20260508084008 48 266 0.0 0.0 0.00 0.01 0.00 75 1013.8
20260508083507 49 266 0.0 0.0 0.00 0.01 0.00 75 1013.7
20260508083009 49 266 0.0 3.0 0.00 0.01 0.00 75 1013.5
20260508082008 49 306 0.0 2.0 0.00 0.01 0.00 74 1013.4
20260508081508 50 306 0.0 2.0 0.00 0.01 0.00 74 1013.3
20260508081008 50 306 0.0 2.0 0.00 0.01 0.00 74 1013.3
20260508080507 50 307 0.0 4.0 0.00 0.01 0.00 74 1013.2
20260508080010 50 303 0.0 5.0 0.00 0.01 0.00 73 1013.1
20260508075507 50 321 1.0 4.0 0.00 0.01 0.00 73 1013.0
20260508074509 51 347 1.0 4.0 0.00 0.01 0.00 72 1012.8
20260508074008 51 278 1.0 4.0 0.00 0.01 0.00 72 1012.8
20260508073507 51 331 0.0 4.0 0.00 0.01 0.00 72 1012.9
20260508073028 51 314 1.0 6.0 0.00 0.01 0.00 72 1012.8
20260508072507 51 296 1.0 7.0 0.00 0.01 0.00 72 1012.7
20260508072008 51 336 0.0 6.0 0.00 0.01 0.00 72 1012.6
20260508071508 51 281 3.0 9.0 0.00 0.01 0.00 72 1012.6
20260508070507 51 355 0.0 10.0 0.00 0.01 0.00 74 1012.4
20260508070011 51 296 1.0 5.0 0.00 0.01 0.00 74 1012.4
20260508064508 51 296 2.0 5.0 0.00 0.03 0.00 77 1012.2
20260508064011 51 292 1.0 3.0 0.00 0.03 0.00 78 1012.1
20260508063508 51 292 1.0 4.0 0.00 0.03 0.00 79 1011.9
20260508063010 51 303 1.0 4.0 0.00 0.03 0.00 79 1011.9
20260508062510 51 308 2.0 5.0 0.00 0.03 0.00 79 1012.0
20260508062009 51 309 1.0 4.0 0.00 0.03 0.00 79 1011.9
20260508061509 52 315 1.0 4.0 0.00 0.03 0.00 79 1011.8
20260508061008 52 308 1.0 2.0 0.00 0.03 0.00 78 1011.7
20260508060507 52 308 0.0 3.0 0.00 0.03 0.00 78 1011.6
20260508060010 52 273 1.0 3.0 0.00 0.15 0.00 77 1011.5
20260508055507 52 271 1.0 2.0 0.00 0.15 0.00 77 1011.5
20260508055008 52 341 0.0 2.0 0.00 0.15 0.00 77 1011.4
20260508054509 53 341 1.0 3.0 0.00 0.15 0.00 77 1011.4
20260508054008 53 341 0.0 3.0 0.00 0.15 0.00 77 1011.5
20260508053507 53 341 0.0 5.0 0.00 0.15 0.00 76 1011.4
20260508053010 53 306 1.0 4.0 0.00 0.15 0.00 76 1011.3
20260508052507 53 300 1.0 4.0 0.00 0.15 0.00 76 1011.3
20260508051508 53 317 1.0 4.0 0.00 0.15 0.00 76 1011.2
20260508051008 54 324 0.0 3.0 0.00 0.15 0.00 76 1011.1
20260508050507 54 324 0.0 5.0 0.00 0.15 0.00 76 1011.1
20260508045507 54 309 0.0 5.0 0.00 0.16 0.00 76 1011.0
20260508045008 54 262 2.0 5.0 0.00 0.16 0.00 76 1011.0
20260508044507 54 277 2.0 4.0 0.00 0.16 0.00 76 1011.0
20260508043507 54 11 1.0 4.0 0.00 0.16 0.00 75 1010.9
20260508043008 54 326 1.0 4.0 0.00 0.16 0.00 75 1010.9
20260508042507 54 341 1.0 4.0 0.00 0.16 0.00 75 1010.9
20260508042009 54 339 3.0 7.0 0.00 0.16 0.00 75 1010.9
20260508041507 54 318 2.0 7.0 0.00 0.16 0.00 75 1010.9
20260508040510 53 309 2.0 7.0 0.00 0.16 0.00 76 1010.9
20260508040018 53 355 2.0 4.0 0.00 0.16 0.00 76 1010.8
20260508035509 53 286 2.0 5.0 0.00 0.17 0.16 76 1010.9
20260508034510 53 344 1.0 5.0 0.00 0.17 0.16 75 1010.8
20260508034010 53 284 2.0 4.0 0.00 0.17 0.16 75 1010.9
20260508033510 53 268 2.0 7.0 0.00 0.17 0.16 75 1010.9
20260508033010 53 287 2.0 7.0 0.00 0.17 0.16 75 1010.9
20260508032509 53 321 3.0 9.0 0.00 0.17 0.16 75 1010.8
20260508032011 53 313 3.0 9.0 0.00 0.17 0.16 75 1010.7
20260508031509 53 333 1.0 4.0 0.00 0.17 0.16 75 1010.8
20260508030510 52 303 2.0 8.0 0.00 0.17 0.16 75 1010.7
20260508030010 52 312 1.0 8.0 0.00 0.18 0.16 75 1010.6
20260508025510 52 267 1.0 5.0 0.00 0.18 0.16 75 1010.7
20260508025009 51 299 1.0 4.0 0.00 0.18 0.16 75 1010.8
20260508024508 51 360 1.0 9.0 0.00 0.18 0.16 75 1010.7
20260508024011 50 306 2.0 9.0 0.00 0.18 0.16 77 1010.8
20260508023508 50 333 1.0 2.0 0.00 0.18 0.16 77 1010.7
20260508023009 50 333 0.0 0.0 0.00 0.18 0.16 76 1010.5
20260508022510 50 333 0.0 0.0 0.00 0.18 0.16 76 1010.5
20260508022009 50 333 0.0 1.0 0.00 0.18 0.16 75 1010.5
20260508021508 50 333 0.0 1.0 0.00 0.18 0.16 74 1010.6
20260508021011 50 333 0.0 0.0 0.00 0.18 0.16 73 1010.5
20260508020508 51 333 0.0 0.0 0.00 0.18 0.16 73 1010.5
20260508020010 51 333 0.0 1.0 0.00 0.18 0.16 72 1010.4
20260508015510 51 333 0.0 1.0 0.00 0.18 0.16 72 1010.4
20260508015009 51 333 0.0 1.0 0.00 0.18 0.16 71 1010.4
20260508014011 51 333 1.0 2.0 0.00 0.18 0.16 69 1010.2
20260508013508 52 333 0.0 1.0 0.00 0.18 0.16 69 1010.1
20260508013009 52 333 1.0 1.0 0.00 0.18 0.16 68 1010.1
20260508012509 52 333 0.0 1.0 0.00 0.18 0.16 66 1010.1
20260508012009 52 333 0.0 2.0 0.00 0.18 0.16 65 1010.0
20260508011508 52 333 1.0 2.0 0.00 0.18 0.16 64 1009.9
20260508011010 53 333 0.0 0.0 0.00 0.18 0.16 63 1009.8
20260508010508 53 333 0.0 0.0 0.00 0.18 0.16 62 1009.8
20260508010010 53 333 0.0 0.0 0.00 0.18 0.16 62 1009.8
20260508005510 53 333 0.0 0.0 0.00 0.18 0.16 62 1009.8
20260508005009 53 333 0.0 0.0 0.00 0.18 0.16 62 1009.7
20260508004510 53 333 0.0 0.0 0.00 0.18 0.16 62 1009.8
20260508004009 53 333 0.0 1.0 0.00 0.18 0.16 63 1009.7
20260508003509 53 333 0.0 1.0 0.00 0.18 0.16 62 1009.7
20260508003010 54 333 0.0 0.0 0.00 0.18 0.16 61 1009.6
20260508002509 54 333 0.0 0.0 0.00 0.18 0.16 60 1009.6
20260508002009 55 333 0.0 0.0 0.00 0.18 0.16 60 1009.6
20260508000508 56 333 0.0 2.0 0.00 0.18 0.16 57 1009.5
20260508000011 57 333 2.0 2.0 0.00 0.18 0.16 57 1009.4
20260507235508 57 336 0.0 1.0 0.00 0.18 0.16 56 1009.4
20260507235009 57 336 0.0 0.0 0.00 0.18 0.16 52 1009.4
20260507234510 58 336 0.0 0.0 0.00 0.18 0.16 51 1009.4
20260507234009 58 336 0.0 0.0 0.00 0.18 0.16 50 1009.3
20260507233508 59 336 0.0 0.0 0.00 0.18 0.16 49 1009.3
20260507233010 59 336 0.0 1.0 0.00 0.18 0.16 48 1009.3
20260507232508 60 336 0.0 1.0 0.00 0.18 0.16 48 1009.3
20260507231508 61 336 0.0 3.0 0.00 0.18 0.16 46 1009.3
20260507231010 61 336 0.0 3.0 0.00 0.18 0.16 46 1009.2
20260507230508 62 335 0.0 4.0 0.00 0.18 0.16 42 1009.3
20260507230010 62 311 2.0 4.0 0.00 0.18 0.16 43 1009.2
20260507225508 62 277 1.0 5.0 0.00 0.18 0.16 42 1009.2
20260507224508 62 306 1.0 3.0 0.00 0.18 0.16 44 1009.2
20260507224010 62 148 0.0 3.0 0.00 0.18 0.16 46 1009.0
20260507223509 62 340 1.0 8.0 0.00 0.18 0.16 44 1009.2
20260507223009 62 325 3.0 8.0 0.00 0.18 0.16 41 1009.1
20260507222508 63 342 2.0 6.0 0.00 0.18 0.16 42 1009.0
20260507222010 63 331 1.0 6.0 0.00 0.18 0.16 40 1009.1
20260507221508 64 294 0.0 6.0 0.00 0.18 0.16 41 1009.1
20260507221009 64 340 2.0 6.0 0.00 0.18 0.16 39 1009.1
20260507220510 64 344 2.0 6.0 0.00 0.18 0.16 43 1009.1
20260507220011 64 282 0.0 4.0 0.00 0.18 0.16 47 1009.0
20260507215508 64 282 1.0 4.0 0.00 0.18 0.16 44 1009.2
20260507214009 65 314 2.0 5.0 0.00 0.18 0.16 40 1009.2
20260507213510 65 309 2.0 11.0 0.00 0.18 0.16 38 1009.2
20260507213009 65 300 3.0 11.0 0.00 0.18 0.16 41 1009.2
20260507212508 65 317 3.0 9.0 0.00 0.18 0.16 41 1009.0
20260507212010 65 310 2.0 5.0 0.00 0.18 0.16 40 1009.0
20260507211508 65 345 2.0 6.0 0.00 0.18 0.16 41 1009.0
20260507210510 65 145 1.0 3.0 0.00 0.18 0.16 46 1008.9
20260507210010 65 350 1.0 5.0 0.00 0.18 0.16 43 1009.0
20260507205508 65 355 3.0 5.0 0.00 0.18 0.16 43 1009.0
20260507205010 64 194 0.0 3.0 0.00 0.18 0.16 47 1008.9
20260507204508 65 194 2.0 6.0 0.00 0.18 0.16 48 1008.9
20260507204009 64 342 0.0 6.0 0.00 0.18 0.16 41 1008.9
20260507203009 65 312 4.0 10.0 0.00 0.18 0.16 41 1008.8
20260507202508 64 310 3.0 5.0 0.00 0.18 0.16 45 1008.8
20260507201508 63 348 0.0 5.0 0.00 0.18 0.16 45 1008.8
20260507201009 64 11 1.0 8.0 0.00 0.18 0.16 43 1008.9
20260507200508 65 344 5.0 8.0 0.00 0.18 0.16 44 1009.0
20260507200011 65 43 3.0 8.0 0.00 0.18 0.16 44 1008.9
20260507195508 65 17 3.0 8.0 0.00 0.18 0.16 44 1009.0
20260507195009 65 138 3.0 5.0 0.00 0.18 0.16 45 1009.0
20260507194510 65 223 1.0 4.0 0.00 0.18 0.16 46 1009.2
20260507194009 64 158 1.0 5.0 0.00 0.18 0.16 52 1009.2
20260507193508 64 179 2.0 6.0 0.00 0.18 0.16 40 1009.4
20260507193010 65 319 4.0 7.0 0.00 0.18 0.16 45 1009.4
20260507192508 65 65 1.0 8.0 0.00 0.18 0.16 44 1009.4
20260507192010 64 11 2.0 8.0 0.00 0.18 0.16 48 1009.5
20260507191508 64 265 3.0 8.0 0.00 0.18 0.16 45 1009.6
20260507191009 65 344 1.0 8.0 0.00 0.18 0.16 48 1009.7
20260507190509 64 301 5.0 9.0 0.00 0.18 0.16 44 1009.7
20260507190013 64 306 3.0 9.0 0.00 0.18 0.16 45 1009.9
20260507185508 64 74 2.0 9.0 0.00 0.18 0.16 46 1010.0
20260507185010 63 301 4.0 9.0 0.00 0.18 0.16 48 1010.1
20260507184508 63 326 2.0 11.0 0.00 0.18 0.16 51 1010.2
20260507184009 63 288 5.0 11.0 0.00 0.18 0.16 45 1010.1
20260507183509 64 319 3.0 10.0 0.00 0.18 0.16 45 1010.2
20260507183010 63 313 4.0 11.0 0.00 0.18 0.16 45 1010.2
20260507182508 64 340 2.0 11.0 0.00 0.18 0.16 49 1010.2
20260507182011 63 291 3.0 10.0 0.00 0.18 0.16 47 1010.2
20260507181508 63 5 1.0 9.0 0.00 0.18 0.16 48 1010.1
20260507181009 63 271 3.0 8.0 0.00 0.18 0.16 49 1010.3
20260507180510 63 171 2.0 8.0 0.00 0.18 0.16 50 1010.3
20260507180009 63 334 3.0 10.0 0.00 0.18 0.16 58 1010.4
20260507175508 63 292 6.0 13.0 0.00 0.18 0.16 48 1010.4
20260507175010 62 360 5.0 13.0 0.00 0.18 0.16 50 1010.6
20260507174508 63 319 2.0 8.0 0.00 0.18 0.16 50 1010.7
20260507173509 62 5 2.0 7.0 0.00 0.18 0.16 51 1010.7
20260507173009 61 280 2.0 6.0 0.00 0.18 0.16 51 1010.8
20260507172508 63 149 2.0 6.0 0.00 0.18 0.16 55 1011.0
20260507172010 62 355 3.0 6.0 0.00 0.18 0.16 60 1011.0
20260507171508 61 180 2.0 9.0 0.00 0.18 0.16 53 1011.1
20260507171010 61 273 2.0 9.0 0.00 0.18 0.16 50 1011.3
20260507170508 62 309 3.0 9.0 0.00 0.18 0.16 54 1011.4
20260507165509 62 345 3.0 8.0 0.00 0.21 0.16 55 1011.4
20260507165009 61 292 1.0 8.0 0.00 0.21 0.16 53 1011.6
20260507163009 62 284 2.0 10.0 0.00 0.21 0.16 55 1011.8
20260507162510 61 325 4.0 10.0 0.00 0.21 0.16 58 1011.8
20260507162009 61 302 5.0 10.0 0.00 0.21 0.16 58 1011.9
20260507161010 60 159 2.0 9.0 0.00 0.21 0.16 61 1011.9
20260507160508 59 344 3.0 10.0 0.00 0.21 0.16 59 1012.1
20260507160019 60 10 5.0 10.0 0.00 0.21 0.16 62 1012.0
20260507155510 60 294 1.0 8.0 0.00 0.25 0.16 66 1012.0
20260507155008 59 299 2.0 7.0 0.00 0.25 0.16 61 1012.2
20260507154508 58 338 2.0 6.0 0.00 0.25 0.16 61 1012.4
20260507154010 58 298 2.0 6.0 0.00 0.25 0.16 61 1012.2
20260507153508 58 74 1.0 8.0 0.00 0.25 0.16 64 1012.1
20260507153009 57 320 1.0 8.0 0.00 0.25 0.16 65 1012.3
20260507152510 57 309 3.0 10.0 0.00 0.25 0.16 67 1012.5
20260507152009 57 305 3.0 8.0 0.00 0.25 0.16 69 1012.5